Showing default

SHIYAN 10 02 (SY-10 02), 54878

Orbit data source: Space-Track

SHIYAN 10 02 (SY-10 02), 54878 is a payload satellite owned by SAST (CN) in HEO that was launched on Thu, 29 Dec 2022 UTC via a CHANG ZHENG 3B launch vehicle from the Xichang Space Center, China (XSC). Payload-class satellites include a variety of spacecraft equipped with specific instruments for various scientific and technological missions. These include communications satellites like Starlink; space stations such as the ISS; scientific satellites like the Hubble; Earth observation satellites from companies like Planet Labs, Umbra, and HawkEye 360; GPS; miniature CubeSats for education and research; and military/defense satellites.

Loading next visibility...
Identifier
54878, 2022-178A
Orbit
HEO
Country
Flag of CNCN / PRC
Related business
Manufacturer
SAST
Mission
Operational Civil Tech/Early Warn
Bus & Motor
SY10, DFH-4 LAE?
Mass
~4,600 kg wet, ~2,500 kg dry
Launch date (UTC)
2022-12-29 (3 years ago)
Launch vehicle
CHANG ZHENG 3B
Launch site
Xichang Space Center, China (XSC)
Object type
Payload
Rocket body
Debris
Shape & HBR
Box + 2 Pan, 15.0 m
Radar Cross Section
34.063 m², Large (>1 m²)

Expand to show TLE details & history
Last TLE update: 5 days ago

TLE from 5 days ago
0 SHIYAN 10 02 (SY-10 02)
1 54878U 22178A   26168.15351428  .00000786  00000-0  00000-0 0  9995
2 54878  64.0299 320.5972 6929324 267.9245  18.3471  2.00593734 16556
Epoch: 2026-06-17T03:41Z
TLE epoch observation values (Epoch: 2026-06-17T03:41:03.633Z)
Latitude
0.00048°
Longitude
-0.15431°
Altitude
7,769.02 km
Speed
6.43 km/s
True Right ascension
21h 22m 06s
True Declination
0° 00' 02"
Sunlit
Object was in daylight at epoch
Visualization orbit readout
Latitude
Unknown
Longitude
Unknown
Altitude
Unknown
Speed
Unknown
Apparent Right ascension
Unknown
Apparent Declination
Unknown
Sunlit
N/A
Visualization observer readout
Local Sidereal Time
21:25:49
Azimuth
Unknown
Elevation
Unknown
Doppler factor
Unknown
Orbital elements
Apogee altitude
38,580.671 km
Perigee altitude
1,776.585 km
Semi-major axis
26,556.765 km
Eccentricity
0.69293
Inclination
64.0299°
RAAN
320.5972°
Arg. of periapsis
267.9245°
True anomaly
92.16961°
Mean anomaly
18.3471°
Eccentric anomaly
47.7225°
Mean motion
0.50151 °/min
Orbital period
717.83 mins
BSTAR
0
Loading maneuver chart data...
Computing Atmospheric mass density...
Loading historical data...
Loading historical data...
Loading historical data...
Loading historical data...
Loading historical data...
Loading historical data...
Loading historical data...
Other satellites on launch #178 in the year 2022 (2022-12-29 UTC)

Documentation

Showing up to 5 results
|